Location: Elbart
(49.6135°N, 11.9134°E)
Time: 23:13:56
(UTC+00:00)

USA 32 - Pass Details

Date: 09 April 2020
Orbit: 777 x 783 km, 85.0° (Epoch: 03 June)

Event Time Altitude Azimuth Distance (km) Brightness Sun altitude
Rises 20:17:25 0° 355° (N) 3,275 8.0 -20.8°
Reaches altitude 10° 20:19:48 10° 357° (N) 2,342 7.1 -21.1°
Maximum altitude 20:25:03 74° 83° (E) 814 3.9 -21.7°
Enters shadow 20:26:24 49° 152° (SSE) 993 4.1 -21.9°
